Hot Springs, VA

3:08 PM EST on January 19, 2017 (GMT -0500)
Ingalls

Weather History for KHSP - August, 2012

Change the Weather History Date:

Tuesday, August 21, 2012

  Actual Average Record
Temperature  
Mean Temperature 60 °F -  
Max Temperature 69 °F 74 °F 82 °F (1998)
Min Temperature 51 °F 59 °F 51 °F (2012)
Degree Days  
Heating Degree Days 5    
Growing Degree Days 10 (Base 50)    
Moisture  
Dew Point 51 °F    
Average Humidity 71    
Maximum Humidity 100    
Minimum Humidity 46    
Precipitation  
Precipitation 0.00 in - - ()
Sea Level Pressure  
Sea Level Pressure 30.20 in    
Wind  
Wind Speed 2 mph (WNW)    
Max Wind Speed 7 mph    
Max Gust Speed -    
Visibility 10 miles    
Events      
Averages and records for this station are not official NWS values.
T = Trace of Precipitation, MM = Missing Value Source: NWS Daily Summary

Daily Weather History Graph

Daily Weather History Graph

Search for Another Location

Airport or City:

Trip Planner

Search our weather history database for the weather conditions in past years. The results will help you decide how hot, cold, wet, or windy it might be!

Date:

Astronomy

Aug. 21, 2012 Rise Set
Actual Time 6:40 AM EDT 8:03 PM EDT
Civil Twilight 6:12 AM EDT 8:31 PM EDT
Nautical Twilight 5:39 AM EDT 9:04 PM EDT
Astronomical Twilight 5:04 AM EDT 9:38 PM EDT
Moon 11:02 AM EDT (8/21) 10:09 PM EDT (8/21)
Length of Visible Light 14h 18m
Length of Day
13h 23m
Waxing Crescent, 19% of the Moon is Illuminated
Aug 21
Waxing Crescent
Aug 24
First Quarter
Aug 31
Full
Sep 8
Last Quarter
Sep 15
New

Hourly Weather History & Observations

Time (EDT) Temp. Dew Point Humidity Pressure Visibility Wind Dir Wind Speed Gust Speed Precip Events Conditions
12:17 AM 59.0 °F 51.8 °F 77% 30.15 in 10.0 mi Calm Calm - N/A   Clear
12:57 AM 57.2 °F 51.8 °F 82% 30.15 in 10.0 mi NNW 4.6 mph - N/A   Clear
1:17 AM 57.2 °F 53.6 °F 88% 30.16 in 10.0 mi Calm Calm - N/A   Clear
1:37 AM 57.2 °F 53.6 °F 88% 30.15 in 10.0 mi Calm Calm - N/A   Clear
2:17 AM 55.4 °F 51.8 °F 88% 30.15 in 10.0 mi Calm Calm - N/A   Clear
2:37 AM 55.4 °F 51.8 °F 88% 30.15 in 10.0 mi Calm Calm - N/A   Clear
2:57 AM 53.6 °F 51.8 °F 94% 30.15 in 10.0 mi NW 3.5 mph - N/A   Clear
3:19 AM 53.6 °F 51.8 °F 94% 30.15 in 10.0 mi Calm Calm - N/A   Clear
3:37 AM 55.4 °F 51.8 °F 88% 30.15 in 10.0 mi NW 3.5 mph - N/A   Clear
3:57 AM 53.6 °F 51.8 °F 94% 30.15 in 10.0 mi Calm Calm - N/A   Clear
4:17 AM 55.4 °F 51.8 °F 88% 30.15 in 10.0 mi WNW 3.5 mph - N/A   Clear
4:39 AM 55.4 °F 51.8 °F 88% 30.15 in 10.0 mi WNW 3.5 mph - N/A   Clear
4:58 AM 53.6 °F 51.8 °F 94% 30.15 in 10.0 mi WNW 4.6 mph - N/A   Clear
5:17 AM 55.4 °F 51.8 °F 88% 30.15 in 10.0 mi WNW 4.6 mph - N/A   Clear
5:37 AM 57.2 °F 50.0 °F 77% 30.15 in 10.0 mi WNW 3.5 mph - N/A   Clear
5:57 AM 53.6 °F 48.2 °F 82% 30.16 in 10.0 mi WNW 4.6 mph - N/A   Clear
6:17 AM 51.8 °F 48.2 °F 88% 30.16 in 10.0 mi West 4.6 mph - N/A   Clear
6:37 AM 51.8 °F 51.8 °F 100% 30.16 in 10.0 mi West 4.6 mph - N/A   Clear
6:57 AM 53.6 °F 51.8 °F 94% 30.16 in 10.0 mi West 4.6 mph - N/A   Clear
7:17 AM 53.6 °F 50.0 °F 88% 30.17 in 10.0 mi WNW 4.6 mph - N/A   Clear
7:37 AM 55.4 °F 51.8 °F 88% 30.17 in 10.0 mi WNW 4.6 mph - N/A   Clear
7:57 AM 57.2 °F 51.8 °F 82% 30.17 in 10.0 mi WNW 4.6 mph - N/A   Clear
8:17 AM 57.2 °F 51.8 °F 82% 30.18 in 10.0 mi WNW 4.6 mph - N/A   Clear
8:37 AM 59.0 °F 51.8 °F 77% 30.19 in 10.0 mi WNW 3.5 mph - N/A   Clear
8:57 AM 60.8 °F 51.8 °F 72% 30.19 in 10.0 mi NW 3.5 mph - N/A   Clear
9:19 AM 60.8 °F 51.8 °F 72% 30.19 in 10.0 mi NNW 3.5 mph - N/A   Clear
9:39 AM 60.8 °F 51.8 °F 72% 30.20 in 10.0 mi WNW 4.6 mph - N/A   Clear
9:59 AM 60.8 °F 53.6 °F 77% 30.20 in 10.0 mi NW 3.5 mph - N/A   Clear
10:17 AM 62.6 °F 51.8 °F 68% 30.21 in 10.0 mi NW 5.8 mph - N/A   Clear
10:37 AM 62.6 °F 51.8 °F 68% 30.22 in 10.0 mi WNW 4.6 mph - N/A   Clear
10:57 AM 62.6 °F 53.6 °F 72% 30.22 in 10.0 mi NW 3.5 mph - N/A   Clear
11:17 AM 64.4 °F 53.6 °F 68% 30.22 in 10.0 mi Calm Calm - N/A   Clear
11:37 AM 64.4 °F 53.6 °F 68% 30.22 in 10.0 mi West 3.5 mph - N/A   Scattered Clouds
11:57 AM 62.6 °F 50.0 °F 63% 30.22 in 10.0 mi Calm Calm - N/A   Clear
12:19 PM 64.4 °F 50.0 °F 59% 30.22 in 10.0 mi NNW 5.8 mph - N/A   Scattered Clouds
12:37 PM 66.2 °F 48.2 °F 52% 30.22 in 10.0 mi NNW 3.5 mph - N/A   Scattered Clouds
12:57 PM 66.2 °F 48.2 °F 52% 30.22 in 10.0 mi WNW 5.8 mph - N/A   Scattered Clouds
1:20 PM 68.0 °F 46.4 °F 46% 30.22 in 10.0 mi WNW 6.9 mph - N/A   Clear
1:39 PM 66.2 °F 51.8 °F 60% 30.22 in 10.0 mi Calm Calm - N/A   Clear
1:57 PM 68.0 °F 46.4 °F 46% 30.21 in 10.0 mi Calm Calm - N/A   Mostly Cloudy
2:17 PM 68.0 °F 51.8 °F 56% 30.21 in 10.0 mi Calm Calm - N/A   Mostly Cloudy
2:37 PM 68.0 °F 50.0 °F 52% 30.21 in 7.0 mi Calm Calm - N/A   Mostly Cloudy
2:57 PM 66.2 °F 51.8 °F 60% 30.21 in 10.0 mi Calm Calm - N/A   Mostly Cloudy
3:17 PM 66.2 °F 51.8 °F 60% 30.20 in 7.0 mi NW 3.5 mph - N/A   Overcast
3:37 PM 68.0 °F 51.8 °F 56% 30.20 in 10.0 mi Calm Calm - N/A   Overcast
3:59 PM 69.8 °F 48.2 °F 46% 30.19 in 7.0 mi Calm Calm - N/A   Mostly Cloudy
4:21 PM 69.8 °F 50.0 °F 49% 30.19 in 10.0 mi East 4.6 mph - N/A   Mostly Cloudy
4:37 PM 68.0 °F 51.8 °F 56% 30.19 in 10.0 mi NNE 5.8 mph - N/A   Overcast
5:00 PM 66.2 °F 51.8 °F 60% 30.20 in 10.0 mi Calm Calm - N/A   Overcast
5:17 PM 69.8 °F 51.8 °F 53% 30.20 in 7.0 mi NE 3.5 mph - N/A   Overcast
5:59 PM 69.8 °F 48.2 °F 46% 30.20 in 7.0 mi WSW 4.6 mph - N/A   Scattered Clouds
6:17 PM 68.0 °F 51.8 °F 56% 30.20 in 10.0 mi East 3.5 mph - N/A   Clear
6:37 PM 66.2 °F 51.8 °F 60% 30.20 in 10.0 mi Calm Calm - N/A   Clear
6:57 PM 66.2 °F 50.0 °F 56% 30.20 in 10.0 mi Calm Calm - N/A   Clear
7:17 PM 66.2 °F 51.8 °F 60% 30.20 in 10.0 mi South 3.5 mph - N/A   Clear
7:37 PM 64.4 °F 51.8 °F 64% 30.21 in 10.0 mi Calm Calm - N/A   Clear
7:57 PM 64.4 °F 51.8 °F 64% 30.22 in 10.0 mi Calm Calm - N/A   Clear
8:17 PM 60.8 °F 51.8 °F 72% 30.22 in 10.0 mi Calm Calm - N/A   Clear
8:37 PM 62.6 °F 51.8 °F 68% 30.23 in 10.0 mi Calm Calm - N/A   Clear
8:57 PM 62.6 °F 51.8 °F 68% 30.24 in 10.0 mi South 3.5 mph - N/A   Clear
9:17 PM 62.6 °F 51.8 °F 68% 30.24 in 10.0 mi South 4.6 mph - N/A   Clear
9:41 PM 62.6 °F 51.8 °F 68% 30.25 in 10.0 mi SSW 4.6 mph - N/A   Clear
9:57 PM 62.6 °F 50.0 °F 63% 30.26 in 10.0 mi South 4.6 mph - N/A   Clear
10:19 PM 62.6 °F 51.8 °F 68% 30.26 in 10.0 mi South 3.5 mph - N/A   Clear
10:39 PM 62.6 °F 50.0 °F 63% 30.26 in 10.0 mi SSE 3.5 mph - N/A   Mostly Cloudy
10:57 PM 62.6 °F 51.8 °F 68% 30.26 in 10.0 mi South 3.5 mph - N/A   Overcast
11:17 PM 62.6 °F 51.8 °F 68% 30.26 in 10.0 mi SSE 4.6 mph - N/A   Mostly Cloudy
11:37 PM 60.8 °F 51.8 °F 72% 30.26 in 10.0 mi SSE 4.6 mph - N/A   Scattered Clouds